Williamsport, PA

7:05 AM EDT on October 22, 2019 (GMT -0400)
Williamsport Rgnl

Weather History for KIPT - September, 2019

Change the Weather History Date:

Friday, September 20, 2019

  Actual Average Record
Temperature  
Mean Temperature 60 °F 62 °F  
Max Temperature 76 °F 72 °F 90 °F (1895)
Min Temperature 44 °F 52 °F 34 °F (1929)
Degree Days  
Heating Degree Days 5 5  
Month to date heating degree days 18 50  
Since 1 July heating degree days 20 64  
Cooling Degree Days 0 1  
Month to date cooling degree days 69 54  
Year to date cooling degree days 832 688  
Growing Degree Days 10 (Base 50)    
Moisture  
Dew Point 48 °F    
Average Humidity 73    
Maximum Humidity 100    
Minimum Humidity 46    
Precipitation  
Precipitation 0.00 in 0.14 in 1.62 in (1977)
Month to date precipitation 1.25 2.78  
Year to date precipitation 37.11 29.81  
Sea Level Pressure  
Sea Level Pressure 30.25 in    
Wind  
Wind Speed 2 mph (SSE)    
Max Wind Speed 8 mph    
Max Gust Speed 9 mph    
Visibility 7 miles    
Events Fog    
T = Trace of Precipitation, MM = Missing Value Source: NWS Daily Summary

Daily Weather History Graph

Daily Weather History Graph

Search for Another Location

Airport or City:

Astronomy

Sep. 20, 2019 Rise Set
Actual Time 6:52 AM EDT 7:08 PM EDT
Civil Twilight 6:25 AM EDT 7:36 PM EDT
Nautical Twilight 5:52 AM EDT 8:08 PM EDT
Astronomical Twilight 5:19 AM EDT 8:41 PM EDT
Moon 10:53 PM EDT (9/20) 12:58 PM EDT (9/20)
Length of Visible Light 13h 10m
Length of Day
12h 15m
Waning Gibbous, 65% of the Moon is Illuminated
Sep 20
Waning Gibbous
Sep 21
Last Quarter
Sep 28
New
Oct 5
First Quarter
Oct 13
Full

Hourly Weather History & Observations

Time (EDT) Temp. Windchill Dew Point Humidity Pressure Visibility Wind Dir Wind Speed Gust Speed Precip Events Conditions
12:54 AM 48.9 °F - 46.0 °F 90% 30.27 in 10.0 mi Calm Calm - N/A   Clear
1:54 AM 48.9 °F - 46.0 °F 90% 30.27 in 10.0 mi Calm Calm - N/A   Clear
2:54 AM 46.9 °F - 44.1 °F 90% 30.27 in 10.0 mi Calm Calm - N/A   Clear
3:54 AM 46.0 °F - 43.0 °F 89% 30.27 in 10.0 mi Calm Calm - N/A   Partly Cloudy
4:08 AM 46.9 °F - 44.1 °F 90% 30.27 in 10.0 mi Calm Calm - N/A   Mostly Cloudy
4:54 AM 45.0 °F - 43.0 °F 93% 30.27 in 10.0 mi Calm Calm - N/A   Scattered Clouds
5:01 AM 45.0 °F - 43.0 °F 93% 30.27 in 10.0 mi Calm Calm - N/A   Mostly Cloudy
5:11 AM 45.0 °F - 43.0 °F 93% 30.26 in 0.8 mi Calm Calm - N/A   Mist
5:25 AM 44.1 °F - 43.0 °F 96% 30.27 in 2.5 mi Calm Calm - N/A   Overcast
5:32 AM 45.0 °F - 43.0 °F 93% 30.27 in 10.0 mi Calm Calm - N/A   Overcast
5:54 AM 46.0 °F 43.9 °F 44.1 °F 93% 30.27 in 7.0 mi NNW 4.6 mph - N/A   Overcast
6:22 AM 45.0 °F 42.6 °F 44.1 °F 97% 30.28 in 2.0 mi NNW 4.6 mph - N/A   Overcast
6:29 AM 45.0 °F - 44.1 °F 97% 30.28 in 1.2 mi Calm Calm - N/A   Overcast
6:54 AM 45.0 °F - 44.1 °F 97% 30.29 in 0.5 mi Calm Calm - N/A Fog Fog
7:03 AM 45.0 °F - 44.1 °F 97% 30.29 in 0.2 mi Calm Calm - N/A Fog Fog
7:54 AM 46.0 °F - 45.0 °F 96% 30.31 in 0.2 mi Calm Calm - N/A Fog Fog
8:54 AM 48.0 °F - 46.9 °F 96% 30.32 in 0.2 mi Calm Calm - N/A Fog Fog
9:12 AM 48.0 °F - 46.9 °F 96% 30.31 in 0.5 mi Calm Calm - N/A Fog Fog
9:28 AM 48.0 °F - 46.9 °F 96% 30.31 in 2.0 mi Calm Calm - N/A   Overcast
9:36 AM 48.9 °F - 46.9 °F 93% 30.31 in 5.0 mi Calm Calm - N/A   Overcast
9:54 AM 50.0 °F - 48.0 °F 93% 30.31 in 7.0 mi Calm Calm - N/A   Overcast
10:54 AM 57.0 °F - 48.0 °F 72% 30.29 in 10.0 mi Calm Calm - N/A   Clear
11:54 AM 63.0 °F - 46.9 °F 56% 30.27 in 10.0 mi Variable 3.5 mph - N/A   Clear
12:54 PM 69.1 °F - 50.0 °F 51% 30.24 in 10.0 mi Calm Calm - N/A   Clear
1:54 PM 71.1 °F - 51.1 °F 49% 30.22 in 10.0 mi Variable 3.5 mph - N/A   Clear
2:54 PM 75.0 °F - 53.1 °F 46% 30.19 in 10.0 mi South 4.6 mph - N/A   Clear
3:54 PM 75.9 °F - 53.1 °F 45% 30.17 in 10.0 mi SE 4.6 mph - N/A   Clear
4:54 PM 75.9 °F - 54.0 °F 46% 30.16 in 10.0 mi ESE 6.9 mph - N/A   Clear
5:54 PM 73.9 °F - 57.9 °F 57% 30.17 in 10.0 mi SE 4.6 mph - N/A   Clear
6:54 PM 68.0 °F - 59.0 °F 73% 30.18 in 10.0 mi Calm Calm - N/A   Clear
7:54 PM 62.1 °F - 57.0 °F 84% 30.19 in 10.0 mi Calm Calm - N/A   Clear
8:54 PM 60.1 °F - 57.0 °F 90% 30.21 in 10.0 mi Calm Calm - N/A   Clear
9:54 PM 60.1 °F - 55.0 °F 83% 30.21 in 10.0 mi Calm Calm - N/A   Clear
10:54 PM 57.0 °F - 53.1 °F 87% 30.22 in 10.0 mi NNW 3.5 mph - N/A   Clear
11:54 PM 55.9 °F - 53.1 °F 90% 30.22 in 10.0 mi West 3.5 mph - N/A   Clear